sat.trackr.live / text

‹ back to catalog

STARLINK-4753

NORAD 53845 · 2022-114AD

PAYLOAD ACTIVE UNKNOWN

§ Identity

Operator
Country
US
Launch date
2022-09-19
Launch site
AFETR
Launch vehicle
Mass (kg)
RCS (m²)

Purposes: comms

External: N2YO · Heavens-Above · Gunter

§ Orbital elements

Epoch: 2026-09-20T22:00:03.000096Z

Period
94.98 min
Inclination
53.1608°
Eccentricity
0.0001482
Mean motion
15.16106014 rev/d
Perigee alt
516.6 km
Apogee alt
518.6 km
Semi-major
6,895.8 km
B*
1.1816e-3
RAAN
136.7698°
Arg perigee
171.5947°
Mean anomaly
5.2056°
Rev number
580

§ Raw data

STARLINK-47531 53845U 22114AD  26263.91670139  .00022799  00000+0  11816-2 0  99972 53845  53.1608 136.7698 0001482 171.5947   5.2056 15.16106014  5805

JSON: /api/v1/satellites/53845 · /tle

For live sub-satellite position, see the globe view (requires WebGL).

§ Visibility from observer

Set your observer location to see the next 7 days of passes ≥ 10°. The values pass through the URL so the page stays shareable.

No JS? Fill the form by hand. The geolocation button needs JavaScript.